Regional Weather Roundup
Issued by NWS San Angelo, TX

Home | Current Version | Previous Version | Text Only | Print | Product List | Glossary On
Versions: 1 2 3 4 5 6 7 8 9 10 11 12 13 14 15 16 17 18 19 20 21 22 23 24 25 26 27 28 29 30 31 32 33 34 35 36 37 38 39 40 41 42 43 44 45 46 47 48 49 50
000
ASUS44 KSJT 031202
RWRSJT
WEST CENTRAL TEXAS REGIONAL WEATHER ROUNDUP
NATIONAL WEATHER SERVICE SAN ANGELO TX
700 AM CDT TUE AUG 03 2021

NOTE: "FAIR" INDICATES FEW OR NO CLOUDS BELOW 12,000 FEET WITH NO
SIGNIFICANT WEATHER AND/OR OBSTRUCTIONS TO VISIBILITY.

TXZ049-054-064>066-071>073-076>078-098-099-113-114-127-128-139-140-
154-155-168>170-031300-
...LOCATIONS ACROSS WEST CENTRAL TEXAS...

CITY           SKY/WX    TMP DP  RH WIND       PRES   REMARKS
SAN ANGELO     CLEAR     61  59  93 SW3       30.10R
ABILENE        CLEAR     62  57  83 CALM      30.10R
DYESS AFB      CLEAR     62  55  77 CALM      30.09R
JUNCTION       MOCLDY    69  66  90 CALM      30.08R FOG
SWEETWATER     CLEAR     64  54  68 CALM      30.16R
BROWNWOOD      NOT AVBL
COLEMAN        NOT AVBL
SAN SABA       SUNNY     66  64  92 W6        30.06R
SONORA         CLEAR     64  64 100 CALM      30.15R
OZONA          FAIR      64  59  82 NW7       30.14R
BRADY            N/A    N/A N/A N/A MISG        N/A
$$

TXZ001-004-007-008-010-012-014-016-OKZ002-031300-
TEXAS PANHANDLE/OKLAHOMA PANHANDLE

CITY           SKY/WX    TMP DP  RH WIND       PRES   REMARKS
AMARILLO       PTCLDY    57  39  51 SW8       30.19R
BORGER         PTCLDY    63  51  65 SW7       30.17S
CANADIAN       CLEAR     54  52  94 CALM      30.15R
DALHART        PTCLDY    57  53  86 SW7       30.22R
DUMAS          MOSUNNY   59  49  69 SW7       30.20S
GUYMON         NOT AVBL
HEREFORD       MOSUNNY   56  52  89 W5        30.23S
PAMPA          NOT AVBL
PERRYTON       CLEAR     58  52  80 SW5       30.15R
$$

TXZ035-026-045-048-031300-
SOUTHERN PANHANDLE/SOUTH PLAINS/ROLLING PLAINS

CITY           SKY/WX    TMP DP  RH WIND       PRES   REMARKS
LUBBOCK        PTCLDY    58  51  78 CALM      30.18S
SNYDER         CLEAR     62  55  79 N7        30.15
CHILDRESS      CLEAR     63  56  78 N5        30.13S
SEMINOLE       NOT AVBL
$$

TXZ060>062-031300-
PERMIAN BASIN

CITY           SKY/WX    TMP DP  RH WIND       PRES   REMARKS
MIDLAND        CLEAR     61  59  93 NE5       30.15R
ODESSA         CLEAR     63  55  75 N3        30.17R
WINK           CLEAR     65  60  84 E5        30.13S
$$

TXZ075-082-271-274-277-419-031300-
FAR WEST/SOUTHWEST MOUNTAINS/TRANS PECOS

CITY           SKY/WX    TMP DP  RH WIND       PRES   REMARKS
ALPINE         NOT AVBL
DRYDEN           N/A     73  70  90 N7        30.12R
EL PASO        MOCLDY    72  59  63 E6        30.18R
FORT STOCKTON  PTCLDY    67  64  90 S6        30.15R
GUADALUPE PASS CLEAR     61  56  83 NE12      30.29R
MARFA          CLEAR     61  59  93 N7        30.26R
PECOS          NOT AVBL
$$

TXZ118-119-031300-
DALLAS/FORT WORTH METROPLEX

CITY           SKY/WX    TMP DP  RH WIND       PRES   REMARKS
DFW AIRPORT    PTCLDY    73  71  93 N5        30.00R FOG
FTW MEACHAM    MOCLDY    70  67  90 N6        30.01R FOG
DAL-EXECUTIVE  CLEAR     71  69  93 N5        30.01R FOG
GRAND PRAIRIE  CLEAR     73  73 100 N3        30.03R
ADDISON        CLEAR     75  70  83 NE5       30.02R
MESQUITE       SUNNY     72  72 100 N8        30.01R FOG
LANCASTER      SUNNY     71  70  97 N5        30.02R FOG
$$

TXZ092-093-103-131-134-031300-
NORTH CENTRAL TEXAS

CITY           SKY/WX    TMP DP  RH WIND       PRES   REMARKS
SHRMAN/DENISON SUNNY     68  66  94 CALM      30.04S
GAINESVILLE    NOT AVBL
BRIDGEPORT     NOT AVBL
DENTON         MOCLDY    69  66  90 N6        30.02S FOG
WAXAHACHIE     SUNNY     71  71 100 N3        30.02R FOG
GRANBURY       SUNNY     68  64  85 W6        30.04R
$$

TXZ085-086-115-141-031300-
WESTERN NORTH TEXAS

CITY           SKY/WX    TMP DP  RH WIND       PRES   REMARKS
WICHITA FALLS  PTCLDY    64  61  90 NW8       30.06S
VERNON         NOT AVBL
BRECKENRIDGE   SUNNY     62  58  86 CALM      30.07R FOG
COMANCHE       CLEAR     66  60  81 NW6       30.06S
$$

TXZ145-158-159-173-191-192-194-205-207-220-223-031300-
CENTRAL AND SOUTH CENTRAL TEXAS

CITY           SKY/WX    TMP DP  RH WIND       PRES   REMARKS
AUSTIN/BERGSTM MOCLDY    74  74 100 NW3       29.98R
WACO           CLOUDY    75  73  93 N6        29.99S
HILLSBORO      PTSUNNY   73  73 100 CALM      30.01R FOG
TEMPLE         PTCLDY    74  74 100 NW5       30.01R
KILLEEN-GRAY   CLEAR     69  65  88 NW5       30.00R
FORT HOOD      CLEAR     71  69  92 NW7       30.02R
GEORGETOWN     CLOUDY    74  72  93 N6        30.02R
LAGO VISTA     PTSUNNY   73  70  92 N6        30.03R
SAN MARCOS     CLOUDY    74  74 100 NW6       30.00R
NEW BRAUNFELS  CLOUDY    74  72  93 N6        29.97R
RANDOLPH AFB   CLOUDY    74  73  98 N3        29.97R
SAN ANTONIO    MOCLDY    75  72  90 W3        30.00R
STINSON        PTCLDY    77  75  93 CALM      29.97R
PLEASANTON     NOT AVBL
LA GRANGE      CLOUDY    77  77 100 CALM      29.95R
GIDDINGS       PTSUNNY   76  74  96 N6        29.98S FOG
$$

TXZ095-096-136-137-148-152-031300-
EAST TEXAS

CITY           SKY/WX    TMP DP  RH WIND       PRES   REMARKS
PARIS          CLEAR     68  67  96 NE5       30.02S
CLARKSVILLE    NOT AVBL
TYLER          CLEAR     73  71  93 NE5       29.99R FOG
LONGVIEW       PTCLDY    73  70  90 CALM      29.98R
PALESTINE      CLOUDY    75  75 100 N7        29.98S FOG
NACOGDOCHES    CLOUDY    74  74 100 CALM      29.98R FOG
$$

TXZ171-183-184-186-188-203-204-031300-
TEXAS HILL COUNTRY AND EDWARDS PLATEAU

CITY           SKY/WX    TMP DP  RH WIND       PRES   REMARKS
LLANO          MOSUNNY   68  63  83 CALM      30.03R HAZE
HORSESHOE BAY  CLOUDY    74  72  93 CALM      30.03S
KERRVILLE      CLOUDY    72  69  91 W3        30.05R
FREDERICKSBRG  CLOUDY    73  71  95 CALM      30.06R
ROCKSPRINGS    NOT AVBL
HONDO          CLOUDY    74  72  93 CALM      30.01R
UVALDE         CLOUDY    74  74 100 CALM      30.03S
DEL RIO        PTCLDY    79  73  82 CALM      30.02R
$$

TXZ163-177-195>197-199-213-226-237-031300-
SOUTHEAST TEXAS

CITY           SKY/WX    TMP DP  RH WIND       PRES   REMARKS
COLLEGE STN    CLOUDY    78  74  87 N7        29.97R
CALDWELL       NOT AVBL
CROCKETT       CLOUDY    73  73 100 CALM      29.97S
BRENHAM        CLOUDY    77  76  96 N3        29.97S
HUNTSVILLE     CLOUDY    77  74  90 CALM      29.96F
CONROE         MOCLDY    76  75  97 N3        29.97R
HOUSTON BUSH   CLOUDY    79  75  87 N7        29.95R
HOUSTON HOBBY  CLOUDY    81  75  82 S8        29.93R
PERLAND        MOCLDY    77  75  93 S6        29.96R
WHARTON        PTSUNNY   76  73  92 CALM      29.96R
$$

TXZ215-216-236-237-438-031300-
THE UPPER TEXAS COAST

CITY           SKY/WX    TMP DP  RH WIND       PRES   REMARKS
ORANGE         PTSUNNY   78  76  94 CALM      29.96R
PORT ARTHUR    MOCLDY    76  76 100 CALM      29.93S
GALVESTON      CLOUDY    79  74  84 SW8       29.95S
ANGLETON       LGT RAIN  76  74  93 SE3       29.95S
BAY CITY       CLOUDY    76  75  96 CALM      29.97R
$$

TXZ229-232-234-239-242-243-245-247-249-250-
253-255-257-343-347-443-031300-
TEXAS COASTAL BEND, RIO GRANDE PLAINS DEEP SOUTH TEXAS

CITY           SKY/WX    TMP DP  RH WIND       PRES   REMARKS
VICTORIA       TSTM      75  73  93 NE6       29.96F
BEEVILLE       FAIR      77  77 100 W3        29.95S
ROCKPORT       CLOUDY    80  75  84 W3        29.94R
PORT ARANSAS   PTSUNNY   82  79  89 SW6       29.96S
PORT LAVACA    CLOUDY    78  75  90 CALM      29.95S
CORPUS CHRISTI MOCLDY    75  74  96 SE3       29.94S
KINGSVILLE NAS PTCLDY    76  74  93 S3        29.94S
COTULLA        MOCLDY    79  72  79 CALM      29.97S
LAREDO         CLOUDY    75  73  93 S5        29.97S
BROWNSVILLE    CLOUDY    81  77  88 CALM      29.95R
PORT ISABEL    CLEAR     80  77  90 W3        29.96R
HEBBRONVILLE   CLOUDY    73  72  97 CALM      29.98R
MCALLEN        LGT RAIN  80  75  84 NW6       29.97S
WESLACO        NOT AVBL


USA.gov is the U.S. government's official web portal to all federal, state and local government web resources and services.